{"data":{"norad_id":62052,"intl_designator":"2024-216W","name":"STARLINK-32495","alt_names":[],"object_type":"PAYLOAD","status":"ACTIVE","operator":null,"country":"US","launch_date":"2024-11-21","launch_site_code":"AFETR","launch_vehicle":null,"mission":null,"orbit_class":"UNKNOWN","rcs_meters":null,"size_class":null,"mass_kg":null,"dimensions":null,"purposes":["comms"],"wikipedia_slug":null,"has_3d_model":false,"image_url":null,"decayed_at":null,"tle_current":{"epoch":"2026-09-21T08:42:36.351936Z","epoch_age_seconds":110982,"freshness":"FRESH","line1":"1 62052U 24216W   26264.36292074  .00012300  00000+0  45559-3 0  9999","line2":"2 62052  42.9978 237.9805 0001029 268.3815  91.6919 15.27590858103723","mean_motion":15.27590858,"eccentricity":0.0001029,"inclination_deg":42.9978,"raan_deg":237.9805,"arg_perigee_deg":268.3815,"mean_anomaly_deg":91.6919,"bstar":0.00045559,"rev_number":10372,"period_min":94.266078672749,"perigee_km":482.31057077035,"apogee_km":483.72259617783,"semimajor_km":6861.1535834741,"source":"CELESTRAK","updated_at":"2026-09-22T09:00:49.490456Z"}}}